Regional Weather Roundup
Issued by NWS

Home | Current Version | Previous Version | Text Only | Print | Product List | Glossary On
Versions: 1 2 3 4 5 6 7 8 9 10 11 12 13 14 15 16 17 18 19 20 21 22 23 24 25 26 27 28 29 30 31 32 33 34 35 36 37 38 39 40 41 42 43 44 45 46 47 48 49 50
000
ASUS43 KMPX 032001
RWRMN
WEATHER ROUNDUP FOR MINNESOTA
NATIONAL WEATHER SERVICE TWIN CITIES/CHANHASSEN MN
300 PM CDT FRI JUL 03 2015


NOTE: "FAIR" INDICATES FEW OR NO CLOUDS BELOW 12,000 FEET WITH NO
SIGNIFICANT WEATHER AND/OR OBSTRUCTIONS TO VISIBILITY. N/A MEANS
CURRENT SKY AND/OR WEATHER CONDITIONS ARE NOT AVAILABLE.

MNZ060>063-068>070-032100-
   Twin Cities Metro

CITY           SKY/WX    TMP DP  RH WIND       PRES   REMARKS
TWIN CITIES    CLOUDY    78  56  46 SW7       29.93F
ST PAUL        SUNNY     77  57  50 SW6       29.93F
CRYSTAL        SUNNY     81  56  42 W8        29.92F
BLAINE         SUNNY     81  57  44 SW9       29.93F
LAKEVILLE      SUNNY     75  57  53 W9        29.95F
EDEN PRAIRIE   SUNNY     77  57  50 SW5       29.93F
SOUTH ST PAUL  SUNNY     77  55  45 SW6       29.93F
LAKE ELMO      FAIR      79  59  50 S8        29.94F
$$
MNZ001>005-007-008-013>017-022>024-027-028-032100-
   Northwest Minnesota

CITY           SKY/WX    TMP DP  RH WIND       PRES   REMARKS
BEMIDJI        SUNNY     78  57  47 N9        29.93S
HALLOCK        SUNNY     79  63  57 NW6       29.92S HAZE
ROSEAU         SUNNY     79  63  57 N6        29.92S
WARROAD        SUNNY     79  59  50 NW7       29.92S
THIEF RVR FALL SUNNY     79  57  47 NW7       29.93S
CROOKSTON      MOSUNNY   81  61  50 N7        29.92F HAZE
FOSSTON        SUNNY     79  63  57 CALM      29.94S HAZE
DETROIT LAKES    N/A     79  61  53 N3        29.95S HAZE
MOORHEAD         N/A     81  64  57 E3        29.93S HAZE
PARK RAPIDS    CLOUDY    79  59  50 N8        29.93S HAZE
MAHNOMEN       FAIR      78  61  55 N9        29.93F
$$
MNZ006-009>011-018-025>026-032100-
   North Central Minnesota

CITY           SKY/WX    TMP DP  RH WIND       PRES   REMARKS
BAUDETTE       SUNNY     77  54  44 NW12      29.91F
FLAG ISLAND    MOSUNNY   75  52  43 CALM      29.90F
INTL FALLS     MOSUNNY   80  57  45 N10G17    29.89S
WASKISH        SUNNY     79  57  47 NW6       29.91S
BIG FORK       SUNNY     81  57  44 NW6       29.90S
LONGVILLE      SUNNY     79  63  57 NW5       29.92S HAZE
GRAND RAPIDS   PTSUNNY   81  57  44 NW15G21   29.90F
CRANE LAKE     SUNNY     73  55  53 NW7       29.89S
ORR            MOSUNNY   79  54  41 NW5       29.87S
COOK           MOSUNNY   75  57  53 N3G16     29.89S
WALKER         FAIR      78  61  56 N6        29.92S HAZE
$$
MNZ012-019>021-037-032100-
   Northeast Minnesota

CITY           SKY/WX    TMP DP  RH WIND       PRES   REMARKS
DULUTH         MOSUNNY   79  62  56 W8        29.88S SMOKE
ELY            SUNNY     75  55  50 NW8G17    29.87S
HIBBING        SUNNY     79  57  46 NW12      29.89S
DULUTH HARBOR  MOSUNNY   82  64  54 W5        29.85F
SILVER BAY     MOSUNNY   81  57  44 NW3       29.83S
GRAND MARAIS     N/A     57  51  80 W6        29.80S
G MARAIS ARPRT MOSUNNY   73  54  49 NW8G17    29.86S
$$
MNZ029>031-032-039>041-046>048-054>057-064-032100-
   West Central Minnesota

CITY           SKY/WX    TMP DP  RH WIND       PRES   REMARKS
FERGUS FALLS   MOSUNNY   79  63  57 NW5       29.92F HAZE
WHEATON        SUNNY     77  64  65 W3        29.95F HAZE
MORRIS         MOSUNNY   81  64  57 NW6       29.93F HAZE
ALEXANDRIA     MOSUNNY   78  66  66 W10       29.95F HAZE
ELBOW LAKE     FAIR      78  67  68 NW6       29.93F HAZE
WADENA         PTSUNNY   79  61  53 N8        29.93S HAZE
GLENWOOD       MOSUNNY   79  66  65 SW8       29.95S
APPLETON       MOSUNNY   84  63  48 CALM      29.93F
BENSON         MOSUNNY   81  64  57 W5        29.94S
ORTONVILLE     PTSUNNY   81  64  57 NE6       29.93F
MADISON        PTSUNNY   79  63  57 CALM      29.94F
WILLMAR        FAIR      79  63  57 W6        29.96S
$$
MNZ033>034-036-042>043-049>051-058-059-032100-
   Central Minnesota

CITY           SKY/WX    TMP DP  RH WIND       PRES   REMARKS
ST CLOUD       CLOUDY    78  62  57 SW8       29.92F
SAUK CENTRE    FAIR      78  65  64 W12       29.94S
PAYNESVILLE    PTSUNNY   76  61  60 S9        29.95S
AITKIN         MOSUNNY   79  64  61 W3        29.90S HAZE
PINE RIVER       N/A     79  61  53 N8        29.95S HAZE
BRAINERD       CLOUDY    79  62  56 MISG      29.92S HAZE
STAPLES          N/A     81  61  50 N6        29.92F HAZE
LONG PRAIRIE   PTSUNNY   77  63  61 W5        29.93F HAZE
LITTLE FALLS   MOSUNNY   77  61  57 NW5       29.92S HAZE
LITCHFIELD     MOSUNNY   79  57  47 W6        29.95F
BUFFALO        SUNNY     78  57  48 SW8       29.95S
MAPLE LAKE     SUNNY     78  61  54 W7        29.94F
$$
MNZ037-044-045-052-053-032100-
   East Central Minnesota

CITY           SKY/WX    TMP DP  RH WIND       PRES   REMARKS
PRINCETON      SUNNY     81  63  54 SW7       29.92S
MORA           SUNNY     77  63  61 W8        29.92S
CAMBRIDGE      MOSUNNY   81  63  54 CALM      29.90F
RUSH CITY      SUNNY     78  63  58 SW6       29.91F
MOOSE LAKE     MOSUNNY   77  63  61 NW7       29.88S HAZE
HINCKLEY       FAIR      79  64  61 SW9       29.89F
CLOQUET        SUNNY     79  61  53 W8        29.89S HAZE
MCGREGOR       PTSUNNY   79  63  57 NW6       29.90F
$$
MNZ071>073-080-081-089-090-097-098-032100-
   Southwest Minnesota

CITY           SKY/WX    TMP DP  RH WIND       PRES   REMARKS
MONTEVIDEO     MOSUNNY   82  64  54 NW6       29.95F
GRANITE FALLS  MOSUNNY   79  62  56 CALM      29.96F
CANBY          PTSUNNY   80  64  58 CALM      29.95F
MARSHALL       MOSUNNY   79  61  53 NW3       29.95S
REDWOOD FALLS  SUNNY     79  54  41 VRB7      29.95F
OLIVIA         SUNNY     77  54  44 SW6       29.95F
PIPESTONE      SUNNY     79  63  57 W7        29.99F
WINDOM         SUNNY     77  54  44 W5        29.98S
WORTHINGTON    SUNNY     75  55  50 W7        30.00S
JACKSON        SUNNY     77  55  47 CALM      29.99F
TRACY          SUNNY     79  60  52 W5        29.97F
SLAYTON        SUNNY     77  55  47 CALM      30.00F
$$
MNZ065>067-074>077-082>085-091>093-032100-
   South Central Minnesota

CITY           SKY/WX    TMP DP  RH WIND       PRES   REMARKS
MANKATO        SUNNY     75  52  43 NW5       29.96F
NEW ULM        SUNNY     75  55  50 SW3       29.96S
ST JAMES       SUNNY     79  57  47 W5        29.97F
FAIRMONT       SUNNY     75  32  20 CALM      29.97F
GLENCOE        SUNNY     79  60  51 S6        29.95S
FARIBAULT      SUNNY     75  55  50 W3        29.96F
OWATONNA       SUNNY     75  50  41 W7        29.96F
WASECA         SUNNY     77  54  44 W5        29.98F
ALBERT LEA     SUNNY     75  52  43 CALM      29.97F
$$
MNZ078>079-086>088-094>096-032100-
   Southeast Minnesota

CITY           SKY/WX    TMP DP  RH WIND       PRES   REMARKS
ROCHESTER      SUNNY     76  54  46 W10       29.98F
RED WING       SUNNY     79  54  41 W9        29.93F
DODGE CENTER   SUNNY     75  54  46 W8        29.97F
WINONA         MOSUNNY   77  57  50 NW7       29.95F
AUSTIN         SUNNY     77  52  41 CALM      29.97F
PRESTON        MOSUNNY   73  54  51 CALM      29.98F
$$
ABBREVIATIONS USED IN REMARKS
   TC - TEMPERATURES IN CELSIUS
  WCI - WIND CHILL INDEX
   HX - HEAT INDEX
  VSB - VISIBILITY
$$


USA.gov is the U.S. government's official web portal to all federal, state and local government web resources and services.